Regional Weather Roundup
Issued by NWS

Home | Current Version | Previous Version | Graphics & Text | Print | Product List | Glossary On
Versions: 1 2 3 4 5 6 7 8 9 10 11 12 13 14 15 16 17 18 19 20 21 22 23 24 25 26 27 28 29 30 31 32 33 34 35 36 37 38 39 40 41 42 43 44 45 46 47 48 49 50
903
ASUS44 KLIX 260401
RWRLA
LOUISIANA WEATHER ROUNDUP
NATIONAL WEATHER SERVICE NEW ORLEANS LA
1100 PM CDT FRI JUL 25 2014

NOTE: "FAIR" INDICATES FEW OR NO CLOUDS BELOW 12,000 FEET WITH NO
      SIGNIFICANT WEATHER AND/OR OBSTRUCTIONS TO VISIBILITY.
      SKY/WX - SKY CONDITION AND SIGNIFICANT WEATHER.
      TMP - AIR TEMPERATURE.    DP   - DEWPOINT TEMPERATURE.
      RH  - RELATIVE HUMIDITY.  PRES - PRESSURE.
      HX  - HEAT INDEX.         WCI  - WIND CHILL INDEX.

*  THESE STATIONS ARE NOT NWS OR FAA STATIONS AND ARE NOT UNDER
   NWS QUALITY CONTROL.

LAZ040-048-061>063-065-066-069-260500-
SOUTHEAST LOUISIANA

CITY           SKY/WX    TMP DP  RH WIND       PRES   REMARKS
N.O. AUDUBON     N/A     81  76  84 MISG        N/A
N.O. INTL ARPT MOCLDY    81  75  82 SW7       30.03R
N.O. LAKEFRONT MOCLDY    83  76  79 SW10      30.04R
N.O. DOWNTOWN* FAIR      82  72  69 SW5       30.05R
SLIDELL        CLOUDY    81  76  84 N6        30.03R
BATON ROUGE    PTCLDY    81  75  82 S6        30.02R
BOOTHVILLE     CLEAR     83  76  79 SW9       30.04F
BELLE CHASSE   MOCLDY    80  75  84 SW3       30.03R
BOGALUSA*      CLOUDY    78  73  83 CALM      30.03S
GALLIANO*      NOT AVBL
NEW ROADS*     FAIR      80  75  85 CALM      30.02S
GONZALES*      FAIR      78  78 100 SW3       30.03R
HAMMOND*       CLOUDY    82  72  69 SW3       30.04R
HOUMA*         PTCLDY    79  73  82 CALM      30.04R
PORT FOURCHON* PTCLDY    84  75  74 SW8       30.06S

$$

LAZ041-044-053-054-260500-
SOUTHWEST LOUISIANA

CITY           SKY/WX    TMP DP  RH WIND       PRES   REMARKS
LAKE CHARLES   CLEAR     81  76  84 SW5       30.01R
LAFAYETTE      MOCLDY    80  76  87 SW5       30.03R
PATTERSON      CLEAR     79  75  89 CALM      30.07S
SALT POINT       N/A     87  77  72 VRB6      30.02S HX  99
NEW IBERIA     MOCLDY    81  76  84 CALM      30.04R
CHENAULT AIRPK CLEAR     82  75  78 S5        30.02R

$$

LAZ027-028-260500-
CENTRAL LOUISIANA

CITY           SKY/WX    TMP DP  RH WIND       PRES   REMARKS
FORT POLK      PTCLDY    82  75  79 S6        30.00R
ALEXANDRIA INT CLEAR     80  75  84 CALM      29.99R
ALEXANDRIA     PTCLDY    79  75  87 CALM      30.01R

$$

LAZ001-002-260500-
NORTHWEST LOUISIANA

CITY           SKY/WX    TMP DP  RH WIND       PRES   REMARKS
SHREVEPORT     MOCLDY    78  74  87 CALM      29.98R
BARKSDALE AFB  CLEAR     79  75  86 SE3       29.99R
DTN SHREVEPORT CLEAR     81  73  76 CALM      29.98R

$$

LAZ014-016-260500-
NORTHEAST LOUISIANA

CITY           SKY/WX    TMP DP  RH WIND       PRES   REMARKS
MONROE         CLEAR     79  75  87 CALM      30.00R
TALLULAH       CLEAR     74  72  93 CALM      30.00R FOG

$$




USA.gov is the U.S. government's official web portal to all federal, state and local government web resources and services.